This demonstration page uses our WeatherBlox Daily Observations layout. Learn more.

Left ArrowRight Arrow

Hourly Observations for May 4, 2021

Temp ( °F °C ) Dew Point ( °F °C ) Humidity (%) Winds ( mph kmh ) Pressure ( in mb ) Visibility ( mi km ) Precip ( " mm )
12:53 am 00:53 Mostly Clear with Light Rain 67 19.4 64 17.8 91 91 SW 8 13 29.90 1013 10 16 0.00 0.00
1:53 am 01:53 Clear 66 18.9 62 16.7 87 87 SW 5 7 29.90 1013 10 16 0.00 0.00
2:53 am 02:53 Clear 64 17.8 61 16.1 90 90 SW 6 9 29.88 1012 10 16 0.00 0.00
3:53 am 03:53 Mostly Clear 64 17.8 61 16.1 90 90 S 5 7 29.89 1012 10 16 0.00 0.00
4:13 am 04:13 Mostly Cloudy 64 17.8 61 16.1 90 90 Calm 29.89 1012 10 16 0.00 0.00
4:53 am 04:53 Mostly Cloudy 64 17.8 61 16.1 90 90 Calm 29.89 1012 10 16 0.00 0.00
5:53 am 05:53 Cloudy 65 18.3 61 16.1 87 87 SSW 3 6 29.89 1012 10 16 0.00 0.00
6:53 am 06:53 Cloudy 65 18.3 61 16.1 87 87 Calm 29.90 1013 10 16 0.00 0.00
7:04 am 07:04 Cloudy 65 18.3 61 16.1 87 87 Calm 29.90 1013 10 16 0.00 0.00
7:53 am 07:53 Cloudy 66 18.9 61 16.1 84 84 Calm 29.92 1013 10 16 0.00 0.00
8:00 am 08:00 Cloudy 66 18.9 61 16.1 84 84 Calm 29.92 1013 10 16 0.00 0.00
8:53 am 08:53 Cloudy 67 19.4 63 17.2 87 87 SW 3 6 29.92 1013 10 16 0.00 0.00
9:53 am 09:53 Cloudy 70 21.1 65 18.3 84 84 SSW 6 9 29.92 1013 10 16 0.00 0.00
10:53 am 10:53 Cloudy 72 22.2 67 19.4 84 84 S 7 11 29.90 1013 10 16 0.00 0.00
10:57 am 10:57 Cloudy 72 22.2 67 19.4 84 84 S 7 11 29.89 1012 10 16 0.00 0.00
11:53 am 11:53 Cloudy 74 23.3 69 20.6 85 85 SSW 9 15 29.92 1013 10 16 0.00 0.00
12:26 pm 12:26 Cloudy 75 23.9 69 20.6 82 82 SW 9 15 29.92 1013 10 16 0.00 0.00
12:53 pm 12:53 Cloudy 75 23.9 69 20.6 82 82 SSW 9 15 29.91 1013 10 16 0.00 0.00
1:31 pm 13:31 Cloudy 76 24.4 69 20.6 79 79 WSW 12 19 29.90 1013 10 16 0.00 0.00
1:53 pm 13:53 Cloudy with Nearby Thunderstorms 75 23.9 69 20.6 82 82 WNW 15 24 29.94 1014 10 16 0.00 0.00
2:03 pm 14:03 Cloudy with Strong Thunderstorms 67 19.4 62 16.7 84 84 NNW 15 24 29.96 1015 3 4 0.12 3.05
2:06 pm 14:06 Cloudy with Strong Thunderstorms 66 18.9 62 16.7 87 87 NW 21 33 29.97 1015 2 2 0.20 5.08
2:17 pm 14:17 Cloudy with Strong Thunderstorms 64 17.8 62 16.7 93 93 N 9 15 29.94 1014 1 2 0.33 8.38
2:21 pm 14:21 Cloudy with Thunderstorms 64 17.8 63 17.2 96 96 VRB 6 9 29.95 1014 2 3 0.36 9.14
2:29 pm 14:29 Cloudy with Nearby Thunderstorms 65 18.3 64 17.8 97 97 ESE 7 11 29.94 1014 1 2 0.45 11.43
2:33 pm 14:33 Cloudy with Rain 65 18.3 64 17.8 97 97 ENE 8 13 29.94 1014 2 3 0.46 11.68
2:42 pm 14:42 Cloudy with Light Rain 66 18.9 64 17.8 93 93 NNE 7 11 29.92 1013 7 11 0.47 11.94
2:53 pm 14:53 Cloudy 66 18.9 64 17.8 93 93 NE 7 11 29.93 1013 10 16 0.47 11.94
3:26 pm 15:26 Cloudy with Nearby Thunderstorms 66 18.9 64 17.8 93 93 Calm 29.93 1014 8 13 0.03 0.76
3:39 pm 15:39 Cloudy with Strong Thunderstorms 66 18.9 64 17.8 93 93 NNW 3 6 29.93 1014 3 4 0.08 2.03
3:50 pm 15:50 Cloudy with Nearby Thunderstorms 66 19 64 18 94 94 NW 7 11 29.93 1014 4 6 0.11 2.79
3:53 pm 15:53 Cloudy with Nearby Thunderstorms 66 18.9 64 17.8 93 93 NW 5 7 29.93 1014 5 8 0.11 2.79
4:04 pm 16:04 Cloudy with Light Rain 66 18.9 64 17.8 93 93 NNE 8 13 29.90 1013 7 11 0.01 0.25
4:35 pm 16:35 Cloudy with Nearby Thunderstorms 66 18.9 64 17.8 93 93 N 3 6 29.90 1013 10 16 0.02 0.51
4:53 pm 16:53 Cloudy with Nearby Thunderstorms 66 18.9 64 17.8 93 93 NW 3 6 29.91 1013 4 6 0.05 1.27
5:53 pm 17:53 Cloudy with Nearby Thunderstorms 66 18.9 64 17.8 93 93 E 6 9 29.88 1012 10 16 0.07 1.78
6:03 pm 18:03 Cloudy with Rain 66 18.9 63 17.2 90 90 E 7 11 29.87 1012 8 13 0.02 0.51
6:53 pm 18:53 Cloudy with Light Rain 65 18.3 63 17.2 93 93 Calm 29.87 1012 10 16 0.09 2.29
7:14 pm 19:14 Cloudy with Heavy Rain 65 18.3 63 17.2 93 93 Calm 29.87 1012 2 3 0.05 1.27
7:23 pm 19:23 Cloudy with Light Rain 65 18.3 63 17.2 93 93 Calm 29.88 1012 3 5 0.07 1.78
7:53 pm 19:53 Cloudy with Heavy Rain 65 18.3 64 17.8 97 97 SSW 5 7 29.91 1013 3 5 0.21 5.33
8:06 pm 20:06 Cloudy with Nearby Thunderstorms 64 17.8 63 17.2 96 96 Calm 29.92 1013 3 4 0.07 1.78
8:17 pm 20:17 Cloudy with Thunderstorms 64 17.8 64 17.8 100 100 Calm 29.91 1013 3 5 0.11 2.79
8:28 pm 20:28 Cloudy with Strong Thunderstorms 64 17.8 63 17.2 96 96 Calm 29.91 1013 2 3 0.21 5.33
8:33 pm 20:33 Cloudy with Nearby Thunderstorms 64 17.8 63 17.2 96 96 S 5 7 29.92 1013 3 5 0.23 5.84
8:37 pm 20:37 Cloudy with Thunderstorms 64 17.8 64 17.8 100 100 SSW 8 13 29.94 1014 4 6 0.25 6.35
8:50 pm 20:50 Cloudy with Strong Thunderstorms 64 18 63 17 94 94 SE 3 6 29.91 1013 3 4 0.38 9.65
8:53 pm 20:53 Cloudy with Strong Thunderstorms 64 17.8 63 17.2 96 96 SSE 5 7 29.92 1013 2 3 0.42 10.67
9:06 pm 21:06 Cloudy with Thunderstorms 64 17.8 63 17.2 96 96 Calm 29.94 1014 4 6 0.04 1.02
9:14 pm 21:14 Cloudy with Nearby Thunderstorms 64 17.8 63 17.2 96 96 W 3 6 29.96 1014 2 3 0.11 2.79
9:35 pm 21:35 Cloudy with Nearby Thunderstorms 64 17.8 63 17.2 96 96 S 5 7 29.96 1014 2 3 0.34 8.64
9:42 pm 21:42 Cloudy with Nearby Thunderstorms 64 17.8 63 17.2 96 96 W 6 9 29.98 1015 3 4 0.39 9.91
9:53 pm 21:53 Cloudy with Nearby Thunderstorms 64 17.8 63 17.2 96 96 WSW 6 9 29.99 1016 3 4 0.45 11.43
10:01 pm 22:01 Cloudy with Nearby Thunderstorms 64 17.8 63 17.2 96 96 SW 3 6 30.00 1016 3 5 0.04 1.02
10:36 pm 22:36 Cloudy with Heavy Rain 64 17.8 63 17.2 96 96 VRB 3 6 30.01 1016 3 4 0.21 5.33
10:46 pm 22:46 Cloudy with Light Rain 64 17.8 63 17.2 96 96 SE 5 7 29.98 1015 6 10 0.23 5.84
10:53 pm 22:53 Cloudy with Rain 64 17.8 62 16.7 93 93 ESE 6 9 29.94 1014 9 14 0.24 6.10
11:53 pm 23:53 Mostly Cloudy 64 17.8 60 15.6 87 87 WSW 6 9 29.88 1012 10 16 0.03 0.76

Powered by AerisWeather